,,,PA_Meas_PMT16A,,PR_Meas_QMR101_102,,RH_Meas_QMH101,,SR_Meas_QMS101,,TA_Meas_QMH101,,GenWind,,GenWind,
date,time,status,PA,status,PR,status,RH,status,SR,status,TA,status,DirAvg,status,SpdAvg,
2011-12-08, 09:22:04,INVALID - VALUE NOT AVAILABLE,0,INVALID - VALUE NOT AVAILABLE,0,INVALID - VALUE NOT AVAILABLE,0,INVALID - VALUE NOT AVAILABLE,0,INVALID - VALUE NOT AVAILABLE,0,INVALID,360,INVALID,0,
2011-12-08, 09:25:04,INVALID - VALUE NOT AVAILABLE,0,INVALID - VALUE NOT AVAILABLE,0,INVALID - VALUE NOT AVAILABLE,0,INVALID - VALUE NOT AVAILABLE,0,INVALID - VALUE NOT AVAILABLE,0,INVALID,360,INVALID,0,
2011-12-08, 09:29:04,VALID,1003.37,VALID,0,VALID,87.5948,VALID,119.818,VALID,25.8434,VALID,19,VALID,1.30586,
2011-12-08, 09:30:04,VALID,1003.4,VALID,0,VALID,87.6329,VALID,120.633,VALID,25.8843,VALID,10,VALID,1.38516,
2011-12-08, 09:31:04,VALID,1003.4,VALID,0,VALID,87.4499,VALID,120.226,VALID,25.8648,VALID,21,VALID,1.53437,
2011-12-08, 09:32:04,VALID,1003.39,VALID,0,VALID,87.5643,VALID,121.693,VALID,25.9038,VALID,18,VALID,1.67227,
2011-12-08, 09:33:04,VALID,1003.39,VALID,0,VALID,87.427,VALID,122.915,VALID,25.8843,VALID,18,VALID,1.85664,
2011-12-08, 09:34:04,VALID,1003.38,VALID,0,VALID,88.6171,VALID,123.404,VALID,25.9018,VALID,25,VALID,1.05625,
2011-12-08, 09:35:04,VALID,1003.39,VALID,0,VALID,88.2967,VALID,123.975,VALID,25.9232,VALID,27,VALID,1.18438,
2011-12-08, 09:36:04,VALID,1003.36,VALID,0,VALID,88.4721,VALID,124.79,VALID,25.9427,VALID,24,VALID,1.0418,
2011-12-08, 09:37:04,VALID,1003.35,VALID,0,VALID,88.6628,VALID,128.132,VALID,25.9622,VALID,30,VALID,0.732813,
2011-12-08, 09:38:04,VALID,1003.34,VALID,0,VALID,88.907,VALID,130.903,VALID,25.9427,VALID,38,VALID,0.607031,
2011-12-08, 09:39:04,VALID,1003.33,VALID,0,VALID,89.0443,VALID,134.245,VALID,25.9408,VALID,12,VALID,0.743359,
2011-12-08, 09:40:04,VALID,1003.3,VALID,0,VALID,88.5026,VALID,135.712,VALID,25.9408,VALID,22,VALID,1.77656,
2011-12-08, 09:41:04,VALID,1003.31,VALID,0,VALID,88.1593,VALID,136.527,VALID,25.9622,VALID,17,VALID,0.811328,
2011-12-08, 09:42:04,VALID,1003.29,VALID,0,VALID,88.8154,VALID,137.506,VALID,26.0012,VALID,6,VALID,0.755859,
2011-12-08, 09:43:04,VALID,1003.3,VALID,0,VALID,88.762,VALID,139.217,VALID,25.9992,VALID,26,VALID,0.839844,
2011-12-08, 09:44:04,VALID,1003.29,VALID,0,VALID,87.9305,VALID,141.418,VALID,26.0401,VALID,40,VALID,0.932813,
2011-12-08, 09:45:04,VALID,1003.29,VALID,0,VALID,88.0754,VALID,145.167,VALID,26.0401,VALID,14,VALID,0.644141,
2011-12-08, 09:46:04,VALID,1003.24,VALID,0,VALID,87.0226,VALID,151.199,VALID,26.0985,VALID,14,VALID,1.22539,
2011-12-08, 09:47:04,VALID,1003.24,VALID,0,VALID,87.1523,VALID,158.861,VALID,26.116,VALID,5,VALID,0.75625,
2011-12-08, 09:48:04,VALID,1003.23,VALID,0,VALID,87.0913,VALID,163.507,VALID,26.1765,VALID,355,VALID,0.634375,
2011-12-08, 09:49:04,VALID,1003.25,VALID,0,VALID,86.9845,VALID,164.811,VALID,26.2154,VALID,336,VALID,0.855859,
2011-12-08, 09:50:05,VALID,1003.25,VALID,0,VALID,87.4956,VALID,167.908,VALID,26.2739,VALID,347,VALID,0.887891,
2011-12-08, 09:51:05,VALID,1003.24,VALID,0,VALID,88.1975,VALID,176.385,VALID,26.3128,VALID,360,VALID,0.2875,
2011-12-08, 09:52:05,VALID,1003.2,VALID,0,VALID,87.8389,VALID,183.721,VALID,26.3713,VALID,354,VALID,0.503125,
2011-12-08, 09:53:05,VALID,1003.22,VALID,0,VALID,86.748,VALID,186.818,VALID,26.3713,VALID,343,VALID,0.534375,
2011-12-08, 09:54:05,VALID,1003.2,VALID,0,VALID,87.7779,VALID,185.025,VALID,26.4102,VALID,343,VALID,0.173438,
2011-12-08, 09:55:05,VALID,1003.2,VALID,0,VALID,88.0983,VALID,179.89,VALID,26.4687,VALID,343,VALID,0.523438,
2011-12-08, 09:56:05,VALID,1003.2,VALID,0,VALID,88.2967,VALID,173.614,VALID,26.4861,VALID,343,VALID,0,
2011-12-08, 09:57:05,VALID,1003.16,VALID,0,VALID,87.6787,VALID,169.62,VALID,26.5466,VALID,343,VALID,0.489062,
2011-12-08, 09:58:05,VALID,1003.15,VALID,0,VALID,87.16,VALID,167.582,VALID,26.5466,VALID,339,VALID,0.700781,
2011-12-08, 09:59:05,VALID,1003.14,VALID,0,VALID,87.4117,VALID,168.153,VALID,26.5661,VALID,342,VALID,0.384375,
2011-12-08, 10:00:05,VALID,1003.1,VALID,0,VALID,89.296,VALID,170.435,VALID,26.605,VALID,343,VALID,0.272266,
2011-12-08, 10:01:05,VALID,1003.07,VALID,0,VALID,88.5255,VALID,174.592,VALID,26.605,VALID,343,VALID,0.142578,
2011-12-08, 10:02:05,VALID,1003.03,VALID,0,VALID,88.9604,VALID,181.113,VALID,26.6245,VALID,343,VALID,0.159375,
2011-12-08, 10:03:05,VALID,1003.01,VALID,0,VALID,88.3653,VALID,189.345,VALID,26.644,VALID,343,VALID,0.3625,
2011-12-08, 10:04:05,VALID,1002.95,VALID,0,VALID,89.0748,VALID,197.17,VALID,26.6635,VALID,343,VALID,0.046875,
2011-12-08, 10:05:05,VALID,1002.95,VALID,0,VALID,86.8395,VALID,203.528,VALID,26.6635,VALID,347,VALID,0.593359,
2011-12-08, 10:06:05,VALID,1002.92,VALID,0,VALID,87.7092,VALID,209.396,VALID,26.6635,VALID,358,VALID,0.789453,
2011-12-08, 10:07:05,VALID,1002.88,VALID,0,VALID,86.7709,VALID,214.613,VALID,26.644,VALID,348,VALID,0.873828,
2011-12-08, 10:08:05,VALID,1002.91,VALID,0,VALID,87.1676,VALID,218.444,VALID,26.6635,VALID,11,VALID,0.785547,
2011-12-08, 10:09:05,VALID,1002.88,VALID,0,VALID,86.5954,VALID,221.46,VALID,26.6635,VALID,9,VALID,1.27422,
2011-12-08, 10:10:05,VALID,1002.88,VALID,0,VALID,86.6488,VALID,225.046,VALID,26.683,VALID,360,VALID,0.882422,
2011-12-08, 10:11:05,VALID,1002.84,VALID,0,VALID,87.4499,VALID,229.122,VALID,26.7024,VALID,341,VALID,0.959766,
2011-12-08, 10:12:05,VALID,1002.88,VALID,0,VALID,87.9152,VALID,232.626,VALID,26.7609,VALID,356,VALID,0.605859,
2011-12-08, 10:13:05,VALID,1002.87,VALID,0,VALID,87.6024,VALID,235.968,VALID,26.7804,VALID,356,VALID,0.410547,
2011-12-08, 10:14:05,VALID,1002.85,VALID,0,VALID,86.0385,VALID,240.533,VALID,26.7804,VALID,15,VALID,1.14375,
2011-12-08, 10:15:05,VALID,1002.85,VALID,0,VALID,86.9921,VALID,245.097,VALID,26.8408,VALID,3,VALID,0.4125,
2011-12-08, 10:16:05,VALID,1002.89,VALID,0,VALID,86.214,VALID,250.151,VALID,26.8973,VALID,2,VALID,0.826172,
2011-12-08, 10:17:05,VALID,1002.9,VALID,0,VALID,85.8936,VALID,254.634,VALID,26.8973,VALID,12,VALID,0.998438,
2011-12-08, 10:18:05,VALID,1002.88,VALID,0,VALID,87.0913,VALID,259.932,VALID,26.9342,VALID,36,VALID,0.7625,
2011-12-08, 10:19:05,VALID,1002.89,VALID,0,VALID,86.3055,VALID,263.681,VALID,26.9732,VALID,8,VALID,0.809766,
2011-12-08, 10:20:05,VALID,1002.91,VALID,0,VALID,85.1154,VALID,267.023,VALID,26.9947,VALID,19,VALID,1.06445,
2011-12-08, 10:21:05,VALID,1002.89,VALID,0,VALID,85.329,VALID,270.284,VALID,26.9752,VALID,29,VALID,0.949609,
2011-12-08, 10:22:05,VALID,1002.91,VALID,0,VALID,85.2909,VALID,272.647,VALID,26.9342,VALID,29,VALID,1.39531,
2011-12-08, 10:23:05,VALID,1002.9,VALID,0,VALID,85.6266,VALID,275.174,VALID,26.9752,VALID,358,VALID,0.812891,
2011-12-08, 10:24:05,VALID,1002.87,VALID,0,VALID,84.7416,VALID,277.212,VALID,26.9926,VALID,18,VALID,1.40469,
2011-12-08, 10:25:05,VALID,1002.86,VALID,0,VALID,84.3449,VALID,278.842,VALID,26.9947,VALID,11,VALID,1.11914,
2011-12-08, 10:26:05,VALID,1002.83,VALID,0.5,VALID,83.9635,VALID,280.88,VALID,27.0531,VALID,13,VALID,1.61602,
2011-12-08, 10:27:05,VALID,1002.87,VALID,0,VALID,84.6653,VALID,283.243,VALID,27.0726,VALID,6,VALID,0.642969,
2011-12-08, 10:28:05,VALID,1002.83,VALID,0,VALID,86.5039,VALID,285.852,VALID,27.1464,VALID,6,VALID,0.217969,
2011-12-08, 10:29:05,VALID,1002.83,VALID,0,VALID,84.1923,VALID,288.542,VALID,27.2111,VALID,350,VALID,0.475,
2011-12-08, 10:30:05,VALID,1002.83,VALID,0,VALID,84.3983,VALID,291.15,VALID,27.3064,VALID,351,VALID,0.578516,
2011-12-08, 10:31:05,VALID,1002.85,VALID,0,VALID,85.2146,VALID,293.269,VALID,27.367,VALID,14,VALID,0.664063,
2011-12-08, 10:32:05,VALID,1002.86,VALID,0,VALID,84.2457,VALID,295.47,VALID,27.4254,VALID,352,VALID,0.584766,
2011-12-08, 10:33:05,VALID,1002.86,VALID,0,VALID,85.1536,VALID,294.41,VALID,27.4623,VALID,40,VALID,0.650781,
2011-12-08, 10:34:05,VALID,1002.9,VALID,0,VALID,85.9317,VALID,293.514,VALID,27.5229,VALID,9,VALID,0.641016,
2011-12-08, 10:35:05,VALID,1002.87,VALID,0,VALID,85.7562,VALID,291.394,VALID,27.6008,VALID,11,VALID,0.571875,
2011-12-08, 10:36:05,VALID,1002.88,VALID,0,VALID,85.1078,VALID,289.438,VALID,27.5987,VALID,10,VALID,0.701563,
2011-12-08, 10:37:05,VALID,1002.86,VALID,0,VALID,85.8096,VALID,287.563,VALID,27.6203,VALID,10,VALID,0.408984,
2011-12-08, 10:38:05,VALID,1002.85,VALID,0,VALID,85.7028,VALID,285.689,VALID,27.6398,VALID,8,VALID,0.439844,
2011-12-08, 10:39:05,VALID,1002.85,VALID,0,VALID,84.0931,VALID,284.385,VALID,27.6203,VALID,350,VALID,0.786328,
2011-12-08, 10:40:05,VALID,1002.84,VALID,0,VALID,82.9336,VALID,282.836,VALID,27.5598,VALID,3,VALID,0.997266,
2011-12-08, 10:41:05,VALID,1002.83,VALID,0,VALID,84.5967,VALID,281.939,VALID,27.5618,VALID,353,VALID,1.02344,
2011-12-08, 10:42:05,VALID,1002.83,VALID,0,VALID,85.0696,VALID,279.82,VALID,27.5229,VALID,358,VALID,1.01602,
2011-12-08, 10:43:05,VALID,1002.81,VALID,0,VALID,85.3138,VALID,277.375,VALID,27.4818,VALID,7,VALID,1.06562,
2011-12-08, 10:44:05,VALID,1002.82,VALID,0,VALID,86.2979,VALID,273.87,VALID,27.4428,VALID,6,VALID,1.4375,
2011-12-08, 10:45:05,VALID,1002.84,VALID,0,VALID,86.4505,VALID,269.55,VALID,27.4039,VALID,26,VALID,1.39258,
2011-12-08, 10:46:05,VALID,1002.85,VALID,0,VALID,86.7404,VALID,264.415,VALID,27.3064,VALID,28,VALID,1.27734,
2011-12-08, 10:47:05,VALID,1002.85,VALID,0,VALID,87.3049,VALID,256.998,VALID,27.3044,VALID,18,VALID,0.667578,
2011-12-08, 10:48:05,VALID,1002.82,VALID,0,VALID,87.8313,VALID,248.847,VALID,27.2869,VALID,6,VALID,1.08594,
2011-12-08, 10:49:05,VALID,1002.87,VALID,0,VALID,85.3061,VALID,240.533,VALID,27.2069,VALID,351,VALID,1.89258,
2011-12-08, 10:50:05,VALID,1002.87,VALID,0,VALID,85.9317,VALID,231.159,VALID,27.1311,VALID,12,VALID,1.74609,
2011-12-08, 10:51:05,VALID,1002.85,VALID,0,VALID,86.0156,VALID,222.356,VALID,27.0706,VALID,353,VALID,1.7793,
2011-12-08, 10:52:05,VALID,1002.87,VALID,0,VALID,87.1523,VALID,216.814,VALID,27.0921,VALID,17,VALID,1.06562,
2011-12-08, 10:53:05,VALID,1002.87,VALID,0,VALID,87.1218,VALID,214.205,VALID,27.0726,VALID,3,VALID,1.87969,
2011-12-08, 10:54:05,VALID,1002.87,VALID,0,VALID,88.1746,VALID,215.021,VALID,27.0726,VALID,4,VALID,1.07734,
2011-12-08, 10:55:05,VALID,1002.87,VALID,0,VALID,88.0525,VALID,216.814,VALID,27.0726,VALID,9,VALID,0.726172,
2011-12-08, 10:56:05,VALID,1002.86,VALID,0,VALID,87.8466,VALID,218.688,VALID,27.0921,VALID,19,VALID,1.40352,
2011-12-08, 10:57:05,VALID,1002.87,VALID,0,VALID,87.8389,VALID,221.704,VALID,27.1116,VALID,342,VALID,1.06914,
2011-12-08, 10:58:05,VALID,1002.87,VALID,0,VALID,88.0602,VALID,224.802,VALID,27.1311,VALID,24,VALID,1.1168,
2011-12-08, 10:59:05,VALID,1002.86,VALID,0,VALID,88.7391,VALID,227.817,VALID,27.17,VALID,13,VALID,0.701953,
2011-12-08, 11:00:05,VALID,1002.87,VALID,0,VALID,87.9762,VALID,230.507,VALID,27.17,VALID,8,VALID,1.03242,
2011-12-08, 11:01:05,VALID,1002.87,VALID,0,VALID,86.275,VALID,231.811,VALID,27.1311,VALID,22,VALID,1.55039,
2011-12-08, 11:02:05,VALID,1002.86,VALID,0,VALID,88.0525,VALID,232.056,VALID,27.1526,VALID,352,VALID,1.1375,
2011-12-08, 11:03:05,VALID,1002.86,VALID,0,VALID,87.015,VALID,230.996,VALID,27.129,VALID,353,VALID,1.04961,
2011-12-08, 11:04:05,VALID,1002.85,VALID,0,VALID,88.0296,VALID,234.42,VALID,27.1721,VALID,351,VALID,0.912109,
2011-12-08, 11:05:05,VALID,1002.85,VALID,0,VALID,88.0296,VALID,242.978,VALID,27.168,VALID,14,VALID,1.09727,
2011-12-08, 11:06:05,VALID,1002.85,VALID,0,VALID,88.4035,VALID,254.226,VALID,27.2285,VALID,3,VALID,0.710547,
2011-12-08, 11:07:05,VALID,1002.85,VALID,0,VALID,87.8466,VALID,264.659,VALID,27.2285,VALID,3,VALID,0.946094,
2011-12-08, 11:08:05,VALID,1002.87,VALID,0,VALID,88.1288,VALID,273.625,VALID,27.289,VALID,3,VALID,0.491406,
2011-12-08, 11:09:05,VALID,1002.88,VALID,0,VALID,88.0831,VALID,282.021,VALID,27.3454,VALID,350,VALID,0.862109,
2011-12-08, 11:10:05,VALID,1002.85,VALID,0,VALID,86.7709,VALID,289.764,VALID,27.367,VALID,353,VALID,1.24961,
2011-12-08, 11:11:05,VALID,1002.88,VALID,0,VALID,86.9006,VALID,296.285,VALID,27.3844,VALID,350,VALID,0.997656,
2011-12-08, 11:12:05,VALID,1002.86,VALID,0,VALID,86.0614,VALID,300.116,VALID,27.4039,VALID,353,VALID,1.11445,
2011-12-08, 11:13:05,VALID,1002.88,VALID,0,VALID,85.4435,VALID,305.088,VALID,27.3628,VALID,356,VALID,1.57227,
2011-12-08, 11:14:05,VALID,1002.86,VALID,0,VALID,86.0767,VALID,312.587,VALID,27.4233,VALID,342,VALID,1.22617,
2011-12-08, 11:15:05,VALID,1002.82,VALID,0,VALID,87.5643,VALID,322.531,VALID,27.4644,VALID,357,VALID,1.08203,
2011-12-08, 11:16:05,VALID,1002.83,VALID,0,VALID,86.0004,VALID,333.29,VALID,27.4428,VALID,5,VALID,1.23438,
2011-12-08, 11:17:05,VALID,1002.85,VALID,0,VALID,86.4352,VALID,342.174,VALID,27.4428,VALID,21,VALID,0.638672,
2011-12-08, 11:18:05,VALID,1002.85,VALID,0,VALID,88.3272,VALID,350.162,VALID,27.5598,VALID,17,VALID,0.482031,
2011-12-08, 11:19:05,VALID,1002.82,VALID,0,VALID,85.6266,VALID,357.661,VALID,27.6182,VALID,352,VALID,0.702734,
2011-12-08, 11:20:05,VALID,1002.79,VALID,0,VALID,86.2598,VALID,365.486,VALID,27.7372,VALID,6,VALID,0.575391,
2011-12-08, 11:21:05,VALID,1002.81,VALID,0,VALID,83.8948,VALID,374.207,VALID,27.7762,VALID,20,VALID,1.23086,
2011-12-08, 11:22:05,VALID,1002.78,VALID,0,VALID,85.5426,VALID,383.173,VALID,27.8347,VALID,344,VALID,0.960156,
2011-12-08, 11:23:05,VALID,1002.74,VALID,0,VALID,85.6647,VALID,390.428,VALID,27.8716,VALID,354,VALID,0.815625,
2011-12-08, 11:24:05,VALID,1002.73,VALID,0,VALID,85.5579,VALID,396.052,VALID,27.93,VALID,347,VALID,1.00664,
2011-12-08, 11:25:05,VALID,1002.71,VALID,0,VALID,84.7187,VALID,403.062,VALID,27.9885,VALID,349,VALID,1.24375,
2011-12-08, 11:26:05,VALID,1002.71,VALID,0,VALID,84.5967,VALID,413.576,VALID,28.047,VALID,352,VALID,1.06758,
2011-12-08, 11:27:05,VALID,1002.69,VALID,0,VALID,83.8338,VALID,428.9,VALID,28.0859,VALID,346,VALID,1.1625,
2011-12-08, 11:28:05,VALID,1002.72,VALID,0,VALID,85.0086,VALID,439.904,VALID,28.1466,VALID,355,VALID,1.3,
2011-12-08, 11:29:05,VALID,1002.71,VALID,0,VALID,84.116,VALID,447.076,VALID,28.0859,VALID,357,VALID,1.31484,
2011-12-08, 11:30:05,VALID,1002.71,VALID,0,VALID,83.6888,VALID,445.365,VALID,28.0665,VALID,351,VALID,0.862891,
2011-12-08, 11:31:05,VALID,1002.68,VALID,0,VALID,83.0556,VALID,413.25,VALID,28.1054,VALID,352,VALID,1.57891,
2011-12-08, 11:32:05,VALID,1002.69,VALID,0,VALID,82.9259,VALID,414.31,VALID,28.0665,VALID,351,VALID,1.5543,
2011-12-08, 11:33:05,VALID,1002.66,VALID,0,VALID,82.9564,VALID,457.836,VALID,28.1076,VALID,339,VALID,1.05273,
2011-12-08, 11:34:05,VALID,1002.67,VALID,0,VALID,81.69,VALID,472.752,VALID,28.0665,VALID,3,VALID,1.71523,
2011-12-08, 11:35:05,VALID,1002.62,VALID,0,VALID,80.5457,VALID,435.013,VALID,28.0881,VALID,360,VALID,1.54766,
2011-12-08, 11:36:05,VALID,1002.62,VALID,0,VALID,81.507,VALID,439.904,VALID,28.1076,VALID,355,VALID,1.27617,
2011-12-08, 11:37:05,VALID,1002.62,VALID,0,VALID,82.3004,VALID,419.934,VALID,28.1054,VALID,339,VALID,1.36563,
2011-12-08, 11:38:05,VALID,1002.59,VALID,0,VALID,82.2088,VALID,386.352,VALID,28.0859,VALID,358,VALID,1.64531,
2011-12-08, 11:39:05,VALID,1002.57,VALID,0,VALID,82.6894,VALID,372.577,VALID,28.1054,VALID,2,VALID,0.946875,
2011-12-08, 11:40:05,VALID,1002.56,VALID,0,VALID,81.4764,VALID,376.816,VALID,28.1444,VALID,16,VALID,1.13242,
2011-12-08, 11:41:05,VALID,1002.53,VALID,0,VALID,81.5756,VALID,383.01,VALID,28.1466,VALID,33,VALID,1.16367,
2011-12-08, 11:42:05,VALID,1002.54,VALID,0,VALID,83.5439,VALID,391.406,VALID,28.1855,VALID,15,VALID,0.644531,
2011-12-08, 11:43:05,VALID,1002.51,VALID,0,VALID,82.1096,VALID,392.954,VALID,28.2614,VALID,8,VALID,0.676562,
2011-12-08, 11:44:05,VALID,1002.5,VALID,0,VALID,81.3162,VALID,395.726,VALID,28.3177,VALID,349,VALID,1.27969,
2011-12-08, 11:45:05,VALID,1002.52,VALID,0,VALID,81.2171,VALID,397.356,VALID,28.3783,VALID,347,VALID,1.48242,
2011-12-08, 11:46:05,VALID,1002.46,VALID,0,VALID,81.4764,VALID,395.318,VALID,28.3567,VALID,356,VALID,0.688672,
2011-12-08, 11:47:05,VALID,1002.43,VALID,0,VALID,81.2171,VALID,386.271,VALID,28.4173,VALID,339,VALID,1.19805,
2011-12-08, 11:48:05,VALID,1002.43,VALID,0,VALID,79.2259,VALID,375.675,VALID,28.4389,VALID,344,VALID,1.4832,
2011-12-08, 11:49:05,VALID,1002.42,VALID,0,VALID,80.4237,VALID,370.621,VALID,28.3978,VALID,7,VALID,0.720312,
2011-12-08, 11:50:05,VALID,1002.41,VALID,0,VALID,80.2863,VALID,368.502,VALID,28.3783,VALID,349,VALID,1.34141,
2011-12-08, 11:51:05,VALID,1002.38,VALID,0,VALID,80.3931,VALID,371.11,VALID,28.4,VALID,358,VALID,0.286328,
2011-12-08, 11:52:05,VALID,1002.39,VALID,0,VALID,81.5222,VALID,368.909,VALID,28.4974,VALID,353,VALID,0.517578,
2011-12-08, 11:53:05,VALID,1002.33,VALID,0,VALID,81.5451,VALID,360.269,VALID,28.5559,VALID,350,VALID,0.887891,
2011-12-08, 11:54:05,VALID,1002.33,VALID,0,VALID,79.081,VALID,355.134,VALID,28.5949,VALID,350,VALID,1.06055,
2011-12-08, 11:55:05,VALID,1002.31,VALID,0,VALID,79.8591,VALID,363.856,VALID,28.5949,VALID,360,VALID,0.618359,
2011-12-08, 11:56:05,VALID,1002.33,VALID,0,VALID,78.8292,VALID,363.041,VALID,28.6144,VALID,354,VALID,1.07461,
2011-12-08, 11:57:05,VALID,1002.3,VALID,0,VALID,79.7752,VALID,365.16,VALID,28.5949,VALID,339,VALID,1.11641,
2011-12-08, 11:58:05,VALID,1002.29,VALID,0,VALID,80.1643,VALID,368.502,VALID,28.5971,VALID,12,VALID,0.434766,
2011-12-08, 11:59:05,VALID,1002.25,VALID,0,VALID,80.0956,VALID,363.285,VALID,28.5732,VALID,34,VALID,1.28008,
2011-12-08, 12:00:05,VALID,1002.24,VALID,0,VALID,79.4548,VALID,355.053,VALID,28.5342,VALID,355,VALID,0.857813,
2011-12-08, 12:01:05,VALID,1002.22,VALID,0,VALID,79.5769,VALID,350.977,VALID,28.4974,VALID,25,VALID,1.73359,
2011-12-08, 12:02:05,VALID,1002.22,VALID,0,VALID,81.2552,VALID,348.777,VALID,28.4194,VALID,9,VALID,0.802734,
2011-12-08, 12:03:05,VALID,1002.21,VALID,0,VALID,82.6513,VALID,346.005,VALID,28.4758,VALID,276,VALID,0.482422,
2011-12-08, 12:04:05,VALID,1002.21,VALID,0,VALID,80.0727,VALID,341.441,VALID,28.5949,VALID,262,VALID,0.475391,
2011-12-08, 12:05:05,VALID,1002.18,VALID,0,VALID,80.21,VALID,339.974,VALID,28.6534,VALID,240,VALID,0.296094,
2011-12-08, 12:06:05,VALID,1002.18,VALID,0,VALID,79.7981,VALID,339.322,VALID,28.7335,VALID,258,VALID,1.21914,
2011-12-08, 12:07:05,VALID,1002.16,VALID,0,VALID,78.4783,VALID,337.039,VALID,28.7704,VALID,287,VALID,0.644531,
2011-12-08, 12:08:05,VALID,1002.14,VALID,0,VALID,79.8057,VALID,334.187,VALID,28.8093,VALID,20,VALID,0.640234,
2011-12-08, 12:09:05,VALID,1002.17,VALID,0,VALID,76.6321,VALID,329.785,VALID,28.8288,VALID,353,VALID,1.25937,
2011-12-08, 12:10:05,VALID,1002.16,VALID,0,VALID,78.7682,VALID,323.02,VALID,28.8093,VALID,348,VALID,0.382813,
2011-12-08, 12:11:05,VALID,1002.13,VALID,0,VALID,77.6391,VALID,319.596,VALID,28.8678,VALID,306,VALID,0.480859,
2011-12-08, 12:12:05,VALID,1002.12,VALID,0,VALID,77.7993,VALID,320.819,VALID,28.9263,VALID,292,VALID,0.16875,
2011-12-08, 12:13:05,VALID,1002.14,VALID,0,VALID,75.9302,VALID,326.036,VALID,28.9241,VALID,293,VALID,1.00195,
2011-12-08, 12:14:05,VALID,1002.11,VALID,0,VALID,77.5933,VALID,337.691,VALID,28.9458,VALID,283,VALID,1.1707,
2011-12-08, 12:15:05,VALID,1002.07,VALID,0,VALID,76.9144,VALID,350.488,VALID,28.9848,VALID,273,VALID,0.929297,
2011-12-08, 12:16:05,VALID,1002.08,VALID,0,VALID,78.7911,VALID,361.737,VALID,29.0628,VALID,274,VALID,0.189453,
2011-12-08, 12:17:05,VALID,1002.06,VALID,0,VALID,74.8393,VALID,370.703,VALID,29.1993,VALID,270,VALID,0.917188,
2011-12-08, 12:18:05,VALID,1002.05,VALID,0,VALID,76.3575,VALID,378.038,VALID,29.2773,VALID,248,VALID,0.4375,
2011-12-08, 12:19:05,VALID,1001.99,VALID,0,VALID,74.6181,VALID,379.505,VALID,29.2773,VALID,238,VALID,0.302734,
2011-12-08, 12:20:05,VALID,1002.01,VALID,0,VALID,73.4737,VALID,376.897,VALID,29.2188,VALID,196,VALID,0.719531,
2011-12-08, 12:21:05,VALID,1001.95,VALID,0,VALID,73.6111,VALID,370.05,VALID,29.0823,VALID,196,VALID,0.384766,
2011-12-08, 12:22:05,VALID,1001.95,VALID,0,VALID,74.7249,VALID,367.687,VALID,29.0238,VALID,187,VALID,0.332422,
2011-12-08, 12:23:05,VALID,1001.95,VALID,0,VALID,74.7707,VALID,366.301,VALID,29.0628,VALID,179,VALID,0.105078,
2011-12-08, 12:24:05,VALID,1001.95,VALID,0,VALID,76.51,VALID,363.937,VALID,29.1603,VALID,298,VALID,0.640234,
2011-12-08, 12:25:05,VALID,1001.92,VALID,0,VALID,74.0841,VALID,359.373,VALID,29.2188,VALID,354,VALID,0.831641,
2011-12-08, 12:26:05,VALID,1001.94,VALID,0,VALID,72.7261,VALID,351.792,VALID,29.1798,VALID,354,VALID,0.508594,
2011-12-08, 12:27:05,VALID,1001.9,VALID,0,VALID,73.7255,VALID,344.864,VALID,29.1408,VALID,354,VALID,0.028125,
2011-12-08, 12:28:05,VALID,1001.89,VALID,0,VALID,76.0599,VALID,338.751,VALID,29.1603,VALID,359,VALID,0.488672,
2011-12-08, 12:29:05,VALID,1001.88,VALID,0,VALID,73.2907,VALID,333.453,VALID,29.1971,VALID,264,VALID,0.85625,
2011-12-08, 12:30:05,VALID,1001.86,VALID,0,VALID,75.2742,VALID,328.236,VALID,29.26,VALID,253,VALID,0.635156,
2011-12-08, 12:31:04,VALID,1001.86,VALID,0,VALID,74.1909,VALID,321.39,VALID,29.2578,VALID,277,VALID,0.406641,
2011-12-08, 12:32:04,VALID,1001.87,VALID,0,VALID,76.9678,VALID,310.549,VALID,29.2773,VALID,312,VALID,0.838281,
2011-12-08, 12:33:04,VALID,1001.81,VALID,0,VALID,75.1979,VALID,298.649,VALID,29.1798,VALID,7,VALID,1.19336,
2011-12-08, 12:34:04,VALID,1001.82,VALID,0,VALID,74.7783,VALID,287.726,VALID,29.0823,VALID,20,VALID,1.35039,
2011-12-08, 12:35:04,VALID,1001.82,VALID,0,VALID,74.4121,VALID,281.124,VALID,28.948,VALID,355,VALID,1.05195,
2011-12-08, 12:36:04,VALID,1001.81,VALID,0,VALID,74.6867,VALID,277.375,VALID,28.909,VALID,8,VALID,0.664453,
2011-12-08, 12:37:04,VALID,1001.81,VALID,0,VALID,76.9525,VALID,277.619,VALID,28.909,VALID,5,VALID,0.376563,
2011-12-08, 12:38:04,VALID,1001.81,VALID,0,VALID,75.9608,VALID,279.902,VALID,28.8873,VALID,359,VALID,0.744922,
2011-12-08, 12:39:04,VALID,1001.83,VALID,0,VALID,75.1216,VALID,285.118,VALID,28.8895,VALID,75,VALID,0.872266,
2011-12-08, 12:40:04,VALID,1001.82,VALID,0,VALID,77.0517,VALID,293.269,VALID,28.8288,VALID,73,VALID,0.353906,
2011-12-08, 12:41:04,VALID,1001.81,VALID,0,VALID,76.3651,VALID,302.724,VALID,28.8678,VALID,24,VALID,0.721094,
2011-12-08, 12:42:04,VALID,1001.81,VALID,0,VALID,75.6632,VALID,309.408,VALID,28.8288,VALID,43,VALID,0.898828,
2011-12-08, 12:43:04,VALID,1001.81,VALID,0,VALID,74.1527,VALID,311.364,VALID,28.8115,VALID,43,VALID,0.383594,
2011-12-08, 12:44:04,VALID,1001.79,VALID,0,VALID,74.5952,VALID,311.283,VALID,28.8461,VALID,44,VALID,0.442969,
2011-12-08, 12:45:04,VALID,1001.75,VALID,0,VALID,76.1362,VALID,310.957,VALID,28.8678,VALID,74,VALID,0.134375,
2011-12-08, 12:46:04,VALID,1001.76,VALID,0,VALID,76.2278,VALID,308.674,VALID,28.9848,VALID,30,VALID,0.450781,
2011-12-08, 12:47:04,VALID,1001.71,VALID,0,VALID,75.503,VALID,310.141,VALID,29.0801,VALID,30,VALID,0.0296875,
2011-12-08, 12:48:04,VALID,1001.69,VALID,0,VALID,73.4966,VALID,313.972,VALID,29.1018,VALID,78,VALID,0.483594,
2011-12-08, 12:49:04,VALID,1001.66,VALID,0,VALID,75.3962,VALID,324.65,VALID,29.0021,VALID,102,VALID,0.849219,
2011-12-08, 12:50:04,VALID,1001.65,VALID,0,VALID,76.4719,VALID,336.795,VALID,28.9458,VALID,99,VALID,0.621484,
2011-12-08, 12:51:04,VALID,1001.62,VALID,0,VALID,76.3117,VALID,345.353,VALID,29.0238,VALID,71,VALID,0.496875,
2011-12-08, 12:52:04,VALID,1001.6,VALID,0,VALID,75.2131,VALID,351.711,VALID,29.0823,VALID,44,VALID,0.416016,
2011-12-08, 12:53:04,VALID,1001.56,VALID,0,VALID,74.8927,VALID,357.987,VALID,29.1993,VALID,10,VALID,0.49375,
2011-12-08, 12:54:04,VALID,1001.56,VALID,0,VALID,71.948,VALID,362.796,VALID,29.2751,VALID,347,VALID,0.757813,
2011-12-08, 12:55:04,VALID,1001.52,VALID,0,VALID,72.6956,VALID,365.404,VALID,29.314,VALID,350,VALID,0.61875,
2011-12-08, 12:56:04,VALID,1001.55,VALID,0,VALID,72.4744,VALID,368.502,VALID,29.2556,VALID,350,VALID,0.220313,
2011-12-08, 12:57:04,VALID,1001.51,VALID,0,VALID,72.2989,VALID,369.643,VALID,29.2556,VALID,28,VALID,0.465625,
2011-12-08, 12:58:04,VALID,1001.46,VALID,0,VALID,73.3746,VALID,370.54,VALID,29.2383,VALID,30,VALID,0.439453,
2011-12-08, 12:59:04,VALID,1001.42,VALID,0,VALID,73.2678,VALID,367.931,VALID,29.1993,VALID,40,VALID,0.78125,